{"data":{"norad_id":52106,"intl_designator":"2022-029U","name":"STARLINK-3670","alt_names":[],"object_type":"PAYLOAD","status":"ACTIVE","operator":null,"country":"US","launch_date":"2022-03-19","launch_site_code":"AFETR","launch_vehicle":null,"mission":null,"orbit_class":"UNKNOWN","rcs_meters":null,"size_class":null,"mass_kg":null,"dimensions":null,"purposes":["comms"],"wikipedia_slug":null,"has_3d_model":false,"image_url":null,"decayed_at":null,"tle_current":{"epoch":"2026-09-19T16:07:35.144256Z","epoch_age_seconds":127365,"freshness":"FRESH","line1":"1 52106U 22029U   26262.67193454 -.00000604  00000+0 -67379-5 0  9994","line2":"2 52106  53.1608 281.5435 0001307  71.0727 289.0417 15.34384320250159","mean_motion":15.3438432,"eccentricity":0.0001307,"inclination_deg":53.1608,"raan_deg":281.5435,"arg_perigee_deg":71.0727,"mean_anomaly_deg":289.0417,"bstar":-6.7379e-6,"rev_number":25015,"period_min":93.84871711932,"perigee_km":461.85574095777,"apogee_km":463.64394877902,"semimajor_km":6840.8868448684,"source":"CELESTRAK","updated_at":"2026-09-20T09:00:39.986761Z"}}}